TimeEDT,TemperatureF,Dew PointF,Humidity,Sea Level PressureIn,VisibilityMPH,Wind Direction,Wind SpeedMPH,Gust SpeedMPH,PrecipitationIn,Events,Conditions,WindDirDegrees,DateUTC
12:54 AM,55.0,50.0,83,30.12,10.0,Calm,Calm,-,N/A,,Clear,0,2008-07-02 04:54:00
1:54 AM,54.0,48.9,83,30.12,10.0,NW,3.5,-,N/A,,Partly Cloudy,310,2008-07-02 05:54:00
2:54 AM,52.0,50.0,93,30.12,10.0,Calm,Calm,-,N/A,,Clear,0,2008-07-02 06:54:00
3:54 AM,52.0,48.9,89,30.11,9.0,Calm,Calm,-,N/A,,Clear,0,2008-07-02 07:54:00
4:54 AM,50.0,48.9,96,30.12,10.0,Calm,Calm,-,N/A,,Clear,0,2008-07-02 08:54:00
5:54 AM,48.9,46.9,93,30.13,8.0,Calm,Calm,-,N/A,,Clear,0,2008-07-02 09:54:00
6:54 AM,50.0,48.0,93,30.15,10.0,Calm,Calm,-,N/A,,Clear,0,2008-07-02 10:54:00
7:54 AM,53.1,50.0,89,30.16,8.0,Calm,Calm,-,N/A,,Clear,0,2008-07-02 11:54:00
8:54 AM,61.0,52.0,72,30.16,10.0,Calm,Calm,-,N/A,,Clear,0,2008-07-02 12:54:00
9:54 AM,66.9,50.0,54,30.16,10.0,NNW,3.5,-,N/A,,Clear,330,2008-07-02 13:54:00
10:54 AM,72.0,48.9,44,30.17,10.0,Calm,Calm,-,N/A,,Clear,0,2008-07-02 14:54:00
11:54 AM,77.0,42.1,29,30.16,10.0,NNE,5.8,-,N/A,,Clear,20,2008-07-02 15:54:00
12:54 PM,77.0,44.1,31,30.15,10.0,Variable,4.6,-,N/A,,Clear,0,2008-07-02 16:54:00
1:54 PM,78.1,44.1,30,30.13,10.0,South,5.8,-,N/A,,Clear,170,2008-07-02 17:54:00
2:54 PM,80.1,46.0,30,30.10,10.0,South,6.9,-,N/A,,Clear,180,2008-07-02 18:54:00
3:54 PM,80.1,46.9,31,30.09,10.0,Variable,5.8,-,N/A,,Clear,0,2008-07-02 19:54:00
4:54 PM,81.0,46.9,30,30.08,10.0,Variable,4.6,-,N/A,,Scattered Clouds,0,2008-07-02 20:54:00
5:54 PM,81.0,45.0,28,30.07,10.0,SSE,5.8,-,N/A,,Partly Cloudy,160,2008-07-02 21:54:00
6:54 PM,81.0,45.0,28,30.06,10.0,South,9.2,-,N/A,,Mostly Cloudy,180,2008-07-02 22:54:00
7:54 PM,78.1,48.0,35,30.06,10.0,SSW,5.8,-,N/A,,Clear,210,2008-07-02 23:54:00
8:54 PM,73.9,50.0,43,30.08,10.0,SSW,3.5,-,N/A,,Clear,200,2008-07-03 00:54:00
9:54 PM,69.1,50.0,51,30.08,10.0,Variable,3.5,-,N/A,,Clear,0,2008-07-03 01:54:00
10:54 PM,66.9,50.0,54,30.09,10.0,SE,4.6,-,N/A,,Clear,140,2008-07-03 02:54:00
11:54 PM,63.0,51.1,65,30.09,10.0,Calm,Calm,-,N/A,,Clear,0,2008-07-03 03:54:00